Location: Clermont
(50.2608°N, 4.3172°E)
Time: 10:42:18
(UTC+00:00)

Cosmos 2297 Rocket - Pass Details

Date: 13 August 2020
Orbit: 838 x 845 km, 71.0° (Epoch: 20 September)

Event Time Altitude Azimuth Distance (km) Brightness Sun altitude
Exits shadow 23:02:25 23° 95° (E) 1,718 3.6 -24.7°
Drops below altitude 10° 23:06:18 10° 52° (NE) 2,466 4.9 -24.8°
Sets 23:09:11 0° 38° (NE) 3,407 5.9 -24.9°
